Content
SEND FEEDBACK

Daily
Averages
Monthly
Summary
United States of America

GLEN CANYON CITY, UTAH


Home > North America > United States > Utah
Elevation: 4133 feet     Latitude: 37 05N     Longitude: 111 40W

WEATHER
 
SELECT A DAY
Number of Records: 197,188;   Date Range: 1/1/95 - 10/24/14
 
SHARE

PRINT THIS DATA

[ ← Previous Day ]
WEATHER ALMANAC - FEBRUARY 10, 2013
[ Next Day → ]
[ °C ]   °F
Weather ElementAverageHighLow
Temperature31.9 °F39 °F (1:53 am)28.4 °F (10:24 am)
Dewpoint25.5 °F28.4 °F (6:14 pm)19 °F (7:53 am)
Humidity78.7 %93 % (10:24 am)46 % (1:53 am)
Barometer29.87 in29.96 in (10:53 pm)29.81 in (1:53 am)
Wind Speed6 mph11.5 mph (8:48 am)
Wind Gust24.2 mph (8:48 am)
Weather ElementAverage
Visibility5.4 mi
Wind DirectionSSE (172.5 °)

Weather ElementTotal
Precipitation0.32 in
Heating Degree Days31.3 (Base 65)
Averaged from 48 records on February 10, 2013
WEATHER CONDITIONS BREAKOUT
WIND DIRECTION BREAKOUT
WEATHER BY HOUR - FEBRUARY 10, 2013
[ °C ]   °F
Local TimeTemperatureDewpointHumidityBarometerVisibilityWind DirectionWind SpeedGust SpeedPrecipitationEventsConditions
1:53 AM39.0 °F19.9 °F46 %29.81 in10.0 miWest (280°)8.1 mph20.7 mphOvercast
2:53 AM37.9 °F21.0 °F51 %29.82 in10.0 miWest (270°)9.2 mphOvercast
3:53 AM37.0 °F21.0 °F52 %29.81 in10.0 miWest (270°)5.8 mphOvercast
4:53 AM37.0 °F21.9 °F54 %29.81 in10.0 miWNW (300°)4.6 mphOvercast
5:53 AM36.0 °F21.0 °F55 %29.83 in10.0 miWest (280°)9.2 mphMostly Cloudy
6:45 AM35.6 °F21.2 °F56 %29.84 in5.0 miWest (280°)10.4 mph0.00 inSnowLight Snow
6:53 AM36.0 °F21.0 °F55 %29.83 in9.0 miWest (280°)9.2 mph0.00 inOvercast
7:53 AM35.1 °F19.0 °F52 %29.84 in10.0 miWNW (290°)8.1 mphOvercast
8:48 AM32.0 °F24.8 °F75 %29.87 in1.8 miWest (270°)11.5 mph24.2 mph0.00 inSnowLight Snow
8:53 AM30.9 °F25.0 °F79 %29.87 in0.8 miWest (280°)11.5 mph20.7 mph0.00 inSnowLight Snow
9:07 AM30.2 °F26.6 °F86 %29.87 in0.5 miWest (270°)8.1 mph0.01 inFog-SnowSnow
9:17 AM30.2 °F26.6 °F86 %29.87 in0.5 miWest (260°)8.1 mph0.02 inFog-SnowSnow
9:53 AM30.0 °F26.1 °F85 %29.89 in0.8 miWNW (290°)6.9 mph0.03 inSnowLight Snow
10:15 AM30.2 °F26.6 °F86 %29.88 in0.2 miWNW (290°)4.6 mph0.02 inFog-SnowHeavy Snow
10:24 AM28.4 °F26.6 °F93 %29.88 in0.2 miWNW (300°)8.1 mph16.1 mph0.04 inFog-SnowHeavy Snow
10:53 AM28.9 °F26.1 °F89 %29.90 in0.2 miWNW (300°)6.9 mph0.06 inFog-SnowSnow
11:07 AM30.2 °F26.6 °F86 %29.89 in1.0 miNE (40°)4.6 mph0.01 inSnowLight Snow
11:12 AM30.2 °F26.6 °F86 %29.89 in1.8 miNE (50°)5.8 mph0.01 inSnowLight Snow
11:15 AM30.2 °F26.6 °F86 %29.89 in3.0 miENE (60°)5.8 mph0.01 inSnowLight Snow
11:19 AM30.2 °F26.6 °F86 %29.89 in2.5 miENE (70°)5.8 mph0.01 inSnowLight Snow
11:22 AM30.2 °F26.6 °F86 %29.89 in1.2 miEast (80°)5.8 mph0.01 inSnowLight Snow
11:30 AM28.4 °F26.6 °F93 %29.89 in0.8 miEast (100°)6.9 mph0.01 inSnowLight Snow
11:34 AM30.2 °F26.6 °F86 %29.88 in2.0 miEast (90°)5.8 mph0.01 inSnowLight Snow
11:41 AM30.2 °F26.6 °F86 %29.88 in5.0 miESE (120°)5.8 mph0.01 inSnowLight Snow
11:53 AM30.0 °F27.0 °F88 %29.89 in2.0 miESE (110°)4.6 mph0.01 inSnowLight Snow
12:01 PM30.2 °F26.6 °F86 %29.88 in1.8 miESE (110°)4.6 mph0.00 inSnowLight Snow
12:09 PM30.2 °F26.6 °F86 %29.88 in1.8 miESE (110°)6.9 mph0.00 inSnowLight Snow
12:44 PM30.2 °F26.6 °F86 %29.86 in3.0 miEast (100°)5.8 mph0.01 inSnowLight Snow
12:53 PM30.0 °F27.0 °F88 %29.87 in4.0 miESE (110°)5.8 mph0.01 inSnowLight Snow
1:17 PM30.2 °F26.6 °F86 %29.85 in10.0 miESE (120°)5.8 mph0.00 inOvercast
1:40 PM30.2 °F26.6 °F86 %29.84 in10.0 miEast (100°)5.8 mph0.00 inOvercast
1:53 PM30.9 °F28.0 °F89 %29.85 in10.0 miSE (130°)6.9 mph0.00 inOvercast
2:11 PM32.0 °F26.6 °F80 %29.84 in10.0 miSE (130°)8.1 mphMostly Cloudy
2:53 PM33.1 °F27.0 °F78 %29.83 in10.0 miESE (120°)6.9 mphMostly Cloudy
3:53 PM35.1 °F26.1 °F70 %29.84 in10.0 miSE (140°)5.8 mphMostly Cloudy
4:53 PM35.1 °F26.1 °F70 %29.85 in10.0 miSE (140°)8.1 mphMostly Cloudy
5:53 PM33.1 °F25.0 °F72 %29.87 in10.0 miCalm0.00 inOvercast
6:14 PM32.0 °F28.4 °F87 %29.87 in2.5 miNNW (330°)6.9 mph0.00 inSnowLight Snow
6:22 PM32.0 °F28.4 °F87 %29.87 in1.2 miNW (320°)5.8 mph0.00 inSnowLight Snow
6:32 PM30.2 °F28.4 °F93 %29.87 in0.8 miCalm0.00 inSnowLight Snow
6:39 PM30.2 °F28.4 °F93 %29.87 in2.5 miCalm0.01 inSnowLight Snow
6:44 PM30.2 °F28.4 °F93 %29.87 in6.0 miSSE (150°)4.6 mph0.01 inSnowLight Snow
6:53 PM30.9 °F28.0 °F89 %29.89 in10.0 miSSE (150°)3.5 mph0.01 inOvercast
7:53 PM32.0 °F27.0 °F82 %29.90 in10.0 miSSW (210°)5.8 mphOvercast
8:53 PM33.1 °F26.1 °F75 %29.94 in10.0 miWNW (290°)3.5 mphOvercast
9:53 PM30.9 °F26.1 °F82 %29.95 in10.0 miCalmPartly Cloudy
10:53 PM30.9 °F24.1 °F76 %29.96 in10.0 miCalmClear
11:53 PM32.0 °F19.9 °F61 %29.96 in8.0 miWNW (290°)4.6 mphOvercast
Hourly data recorded from KPGA, located miles away from Glen Canyon City, Utah







STORIES FROM OUR PARTNERS